This demonstration page uses our WeatherBlox Daily Observations layout. Learn more.

Left ArrowRight Arrow

Hourly Observations for September 14, 2022

Temp ( °F °C ) Dew Point ( °F °C ) Humidity (%) Winds ( mph kmh ) Pressure ( in mb ) Visibility ( mi km ) Precip ( " mm )
12:53 am 00:53 Cloudy 63 17.2 61 16.1 93 93 Calm 30.03 1017 10 16 0.00 0.00
1:53 am 01:53 Mostly Cloudy 63 17.2 60 15.6 90 90 WNW 3 6 30.03 1017 10 16 0.00 0.00
2:53 am 02:53 Clear 60 15.6 58 14.4 93 93 Calm 30.04 1017 10 16 0.00 0.00
3:53 am 03:53 Clear 59 15 57 13.9 93 93 Calm 30.05 1018 9 14 0.00 0.00
4:53 am 04:53 Clear 58 14.4 57 13.9 97 97 Calm 30.06 1018 10 16 0.00 0.00
5:53 am 05:53 Clear 58 14.4 57 13.9 97 97 Calm 30.06 1018 7 11 0.00 0.00
6:49 am 06:49 Mostly Cloudy with Mist and Fog 57 14 55 13 94 94 Calm 30.10 1019 5 8 0.00 0.00
6:59 am 06:59 Mostly Clear with Mist and Fog 57 13.9 56 13.3 96 96 Calm 30.11 1020 1 1 0.00 0.00
7:10 am 07:10 Mostly Clear with Fog 57 13.9 57 13.9 100 100 Calm 30.11 1020 0 0 0.00 0.00
7:53 am 07:53 Partly Cloudy with Fog 58 14.4 58 14.4 100 100 Calm 30.12 1020 0 0 0.00 0.00
8:01 am 08:01 Partly Cloudy with Fog 59 15 58 14.4 96 96 Calm 30.13 1020 0 0 0.00 0.00
8:53 am 08:53 Cloudy with Mist and Fog 60 15.6 59 15 96 96 WNW 3 6 30.14 1021 1 1 0.00 0.00
9:08 am 09:08 Cloudy with Mist and Fog 60 15.6 60 15.6 100 100 Calm 30.13 1020 3 5 0.00 0.00
9:31 am 09:31 Mostly Sunny 62 16.7 61 16.1 96 96 W 3 6 30.14 1021 8 13 0.00 0.00
9:53 am 09:53 Sunny 65 18.3 61 16.1 87 87 WNW 3 6 30.15 1021 10 16 0.00 0.00
10:42 am 10:42 Mostly Cloudy 70 21.1 62 16.7 76 76 VRB 3 6 30.16 1021 10 16 0.00 0.00
10:53 am 10:53 Mostly Cloudy 70 21.1 62 16.7 76 76 VRB 5 7 30.17 1022 10 16 0.00 0.00
11:21 am 11:21 Mostly Sunny 71 21.7 62 16.7 73 73 VRB 3 6 30.16 1021 10 16 0.00 0.00
11:53 am 11:53 Mostly Sunny 74 23.3 61 16.1 64 64 VRB 5 7 30.17 1022 10 16 0.00 0.00
12:53 pm 12:53 Sunny 76 24.4 61 16.1 60 60 N 5 7 30.16 1021 10 16 0.00 0.00
1:53 pm 13:53 Partly Cloudy 78 25.6 61 16.1 56 56 VRB 5 7 30.16 1021 10 16 0.00 0.00
2:53 pm 14:53 Sunny 78 25.6 59 15 52 52 Calm 30.15 1021 10 16 0.00 0.00
3:53 pm 15:53 Partly Cloudy 79 26.1 62 16.7 56 56 VRB 3 6 30.14 1021 10 16 0.00 0.00
4:53 pm 16:53 Sunny 80 26.7 58 14.4 47 47 Calm 30.13 1020 10 16 0.00 0.00
5:53 pm 17:53 Partly Cloudy 77 25 62 16.7 60 60 Calm 30.13 1020 10 16 0.00 0.00
6:53 pm 18:53 Sunny 72 22.2 65 18.3 79 79 Calm 30.13 1020 10 16 0.00 0.00
7:53 pm 19:53 Clear 68 20 64 17.8 87 87 Calm 30.14 1021 10 16 0.00 0.00
8:53 pm 20:53 Clear 64 17.8 62 16.7 93 93 Calm 30.15 1021 10 16 0.00 0.00
9:53 pm 21:53 Clear 63 17.2 60 15.6 90 90 Calm 30.17 1022 10 16 0.00 0.00
10:53 pm 22:53 Clear 62 16.7 60 15.6 93 93 Calm 30.18 1022 10 16 0.00 0.00
11:53 pm 23:53 Clear 61 16.1 59 15 93 93 Calm 30.19 1022 10 16 0.00 0.00

Powered by AerisWeather